Wind_Speed
21 21 21 21 21 20 20 19 19 19 19 19 19 18 18 17 16 16 15 15 15 15 16 16 18 18 19 20 19 18 17 16 17 18 12 6 16 23 23 24 24 23 22 20 20 19 18 16 13 9 8 7 5 2 4 5 5 14 12 7 10 5 1 1 2 5 7 6 4 11 13 10 11 10 10 12 12 14 11 9 8 7 7 12 16 19 21 22
22 22 22 21 21 21 21 20 19 19 19 19 18 18 18 17 16 16 15 15 15 15 15 15 16 17 18 19 19 19 17 17 17 16 11 8 16 21 21 22 23 23 21 21 20 19 18 16 12 11 9 8 6 3 2 3 8 16 16 12 9 5 4 5 4 2 5 3 5 12 10 8 10 10 12 15 15 15 14 14 12 12 12 14 17 21 21 21
22 22 22 22 22 21 21 21 20 19 19 19 18 18 18 18 17 16 16 15 15 15 15 15 15 16 17 18 19 19 17 16 15 12 10 10 14 18 19 20 21 21 21 20 20 20 18 15 11 11 11 11 8 4 6 7 9 18 19 16 11 7 4 4 8 5 4 5 7 9 9 9 9 10 14 16 17 18 18 17 17 15 13 14 18 21 21 21
22 22 22 22 22 22 22 21 21 20 20 19 19 19 18 18 17 17 16 16 16 15 15 15 15 15 16 17 17 18 17 15 14 11 8 7 10 15 17 19 20 20 20 20 20 21 19 15 12 11 9 10 7 5 14 15 12 16 18 18 10 5 2 1 4 6 4 6 8 8 10 10 6 9 16 14 15 20 21 17 14 14 13 16 20 20 20 21
21 21 22 22 22 23 22 22 22 21 20 20 20 20 19 19 18 17 17 17 17 16 15 15 14 15 16 17 17 17 16 13 11 7 4 5 9 14 16 17 18 19 19 20 21 22 21 16 11 10 11 10 10 9 13 14 14 15 15 18 10 2 5 3 4 7 3 10 10 7 9 9 6 10 17 11 11 22 23 15 8 9 12 15 20 21 21 21
20 20 21 21 22 22 22 22 22 22 21 21 21 20 20 19 19 18 18 18 18 17 16 15 15 15 16 17 16 16 15 11 10 8 4 3 6 10 14 15 17 18 19 21 22 23 23 18 15 16 17 15 15 17 15 12 16 18 17 21 11 4 9 4 4 8 5 8 8 8 10 11 6 7 16 11 12 24 23 15 5 5 11 14 18 20 21 21
19 19 20 20 21 21 22 22 22 22 22 22 21 21 21 20 19 19 19 19 18 18 17 16 15 15 16 18 17 16 15 10 9 12 10 5 5 7 11 14 17 18 20 21 22 22 24 22 19 20 20 19 17 17 17 15 17 20 22 22 14 9 13 6 5 8 7 5 7 11 9 11 8 6 11 8 14 26 22 15 6 3 12 15 17 18 20 20
18 18 19 20 20 21 21 21 21 22 22 22 22 22 21 21 20 19 19 20 19 19 18 17 17 15 15 18 18 18 15 9 8 13 12 9 9 8 10 14 17 20 20 20 21 21 23 24 22 20 21 21 17 14 12 11 15 19 22 23 20 18 16 8 5 8 10 9 12 12 6 9 12 9 7 6 16 23 18 14 7 4 12 15 16 17 19 21
18 18 18 18 19 19 20 20 21 21 21 21 21 22 22 21 21 20 20 20 20 20 19 18 18 17 17 17 20 18 12 9 10 12 12 12 12 10 11 14 17 20 20 20 20 20 23 24 24 22 20 19 18 18 14 15 17 14 15 19 21 18 16 11 8 9 10 14 16 10 8 10 12 10 9 10 14 15 13 12 9 7 12 15 16 17 19 20
19 18 18 18 18 18 18 19 19 20 20 20 21 21 21 22 21 21 21 21 22 21 20 20 19 19 18 17 19 14 7 8 9 9 12 13 12 10 12 15 18 20 21 21 21 22 23 24 23 21 20 18 18 21 19 23 23 15 13 16 17 14 15 16 13 10 8 16 19 12 13 12 10 10 14 16 11 12 14 13 11 8 9 15 17 17 18 19
20 19 19 19 19 19 18 18 18 18 19 19 20 20 21 22 21 21 21 21 22 22 22 21 21 21 20 21 20 11 5 5 5 9 13 15 11 8 11 15 17 19 21 21 21 22 22 23 22 18 19 20 20 22 22 25 26 21 18 19 21 17 16 19 16 14 12 17 22 16 15 14 11 9 17 21 13 14 17 15 12 7 8 14 17 17 17 17
20 20 20 20 20 20 19 18 18 18 18 18 18 19 20 21 21 22 21 22 23 23 22 22 23 22 23 24 15 6 7 7 7 10 12 12 10 6 8 14 16 17 20 21 20 20 20 22 23 20 20 19 18 21 21 23 23 21 16 19 22 18 16 16 16 14 13 16 23 19 17 18 13 9 18 22 17 17 19 16 13 9 8 12 15 18 18 16
21 20 20 20 21 20 20 19 19 18 17 17 17 18 19 19 21 21 21 22 23 24 23 24 24 24 26 21 6 5 11 11 12 17 14 10 14 12 6 11 15 16 18 20 20 18 18 22 26 23 22 20 19 20 19 20 20 18 15 17 20 20 19 12 12 12 9 10 21 25 22 21 16 11 16 21 19 20 20 17 15 11 11 12 12 16 19 17
21 21 20 20 21 21 21 20 20 19 18 17 17 18 18 18 20 20 20 22 24 24 24 25 25 26 28 15 3 9 15 14 16 19 19 16 17 18 12 9 13 16 15 18 20 18 15 19 24 24 24 24 21 19 18 19 19 19 19 19 19 22 20 14 15 17 14 11 20 26 21 20 17 12 17 22 21 22 21 18 16 13 13 14 12 14 18 18
22 22 21 20 21 21 21 21 20 20 19 18 18 18 17 18 19 19 20 21 23 24 24 26 26 28 30 17 8 14 17 18 17 14 18 19 17 18 17 12 11 16 17 17 19 20 17 17 21 23 25 25 22 20 20 21 21 20 20 18 17 19 20 19 19 21 17 12 22 23 16 19 17 13 19 23 22 22 22 19 17 15 15 16 14 13 16 17
23 22 22 21 21 21 22 21 20 20 19 19 19 18 18 19 19 19 20 21 22 23 23 25 27 29 28 18 11 13 15 16 12 10 15 17 15 18 21 17 12 14 17 18 19 21 22 20 20 22 23 24 23 23 21 22 23 20 19 21 20 20 23 22 18 20 17 12 18 19 15 17 17 16 21 24 22 22 24 20 18 17 17 16 15 14 16 17
23 23 23 23 22 21 22 21 21 20 19 19 20 17 18 20 20 19 20 21 22 22 22 24 28 30 24 16 13 11 11 14 12 13 16 14 15 20 22 19 12 11 12 14 17 19 21 22 21 21 23 24 24 23 22 23 25 21 20 23 24 24 24 23 17 19 19 18 15 14 14 14 15 18 22 24 21 22 25 21 19 20 20 18 17 16 16 17
24 23 23 23 23 22 23 22 21 21 19 19 20 18 17 21 22 20 21 22 22 22 23 24 27 29 18 11 14 10 5 9 12 13 14 14 14 19 21 17 11 9 12 14 16 19 20 21 22 22 24 26 26 27 27 27 26 24 22 23 25 25 22 20 19 18 19 25 20 16 16 13 14 18 22 25 21 22 27 23 20 22 23 20 18 17 16 16
25 24 23 23 23 24 23 23 22 22 20 19 20 20 19 21 21 21 24 24 23 22 21 22 26 27 17 7 7 6 2 4 9 9 10 13 12 16 20 16 12 13 17 19 19 20 21 21 23 27 29 30 30 31 32 30 27 25 24 24 24 24 22 21 20 19 20 22 20 19 19 16 16 16 21 27 23 21 26 24 21 23 25 23 20 19 17 17
27 25 24 23 23 24 24 24 23 22 21 19 19 20 21 23 21 21 26 25 23 23 21 23 26 27 22 14 9 8 5 4 10 10 9 13 12 14 18 17 15 18 21 22 22 21 22 25 29 33 34 31 30 31 31 29 27 26 26 27 25 24 24 22 20 23 23 20 20 20 19 20 19 15 21 27 22 20 24 24 23 24 25 24 23 22 19 17
28 26 25 23 22 23 25 24 24 24 23 21 20 19 21 24 23 23 27 27 24 24 24 23 26 29 24 18 18 13 9 7 14 13 13 13 11 13 17 19 20 23 25 23 21 20 23 30 34 33 32 29 27 27 29 28 28 28 29 30 30 27 26 23 18 23 25 22 22 22 20 22 19 17 24 27 23 23 24 25 25 25 26 25 26 25 20 17
30 29 26 24 21 22 24 24 23 24 24 23 22 20 21 23 24 24 29 29 23 22 26 23 24 30 25 18 22 19 17 20 17 16 18 17 16 17 17 20 23 25 25 22 23 24 28 34 34 30 27 27 26 26 27 29 29 30 31 32 33 31 28 24 18 18 23 24 25 26 25 23 20 20 25 26 26 26 24 25 25 25 27 28 27 26 22 19
30 30 28 26 22 21 23 23 22 23 23 24 23 21 23 23 23 24 28 32 26 21 24 24 23 26 26 22 20 23 26 28 23 20 22 21 20 20 19 20 23 25 24 25 27 30 32 32 29 27 26 25 27 27 27 29 32 32 33 33 33 33 29 25 19 17 23 26 24 25 27 25 22 22 24 26 28 29 25 24 24 24 27 29 30 27 24 22
31 31 30 28 25 22 22 22 22 22 22 23 24 24 24 22 21 24 26 32 32 23 19 21 23 25 24 20 17 26 32 30 26 24 25 25 22 21 21 20 21 24 26 26 28 32 33 28 23 23 26 27 28 29 29 30 33 35 36 35 33 33 30 27 22 19 24 27 26 25 26 27 27 25 26 28 30 31 28 25 25 26 27 27 29 28 25 24
31 32 31 30 27 23 22 22 21 22 22 23 25 23 22 20 19 23 25 30 34 28 22 21 22 22 18 17 21 27 32 34 32 27 26 28 25 23 24 22 22 26 27 27 28 31 32 26 21 21 25 29 30 31 33 33 34 35 35 37 35 31 30 29 24 21 20 24 28 26 20 20 29 30 28 30 32 33 30 25 25 28 30 29 30 29 27 25
31 32 31 31 30 26 22 22 21 21 22 23 23 19 18 18 16 20 22 25 32 29 24 21 19 18 16 21 25 24 27 34 35 29 27 27 26 24 24 24 26 26 25 25 26 30 30 26 26 26 25 28 32 33 33 33 35 35 33 35 35 33 33 33 30 26 17 23 27 26 17 13 24 30 30 31 32 34 33 26 24 29 32 32 31 31 29 27
30 31 30 30 32 30 24 22 22 23 23 23 22 17 17 17 15 18 17 15 20 19 14 14 12 15 16 16 21 25 23 21 28 34 33 29 26 25 26 25 27 28 25 23 26 29 28 26 28 30 29 29 33 36 34 33 35 36 33 30 31 34 35 35 35 30 19 22 27 32 29 19 22 30 30 30 30 32 34 27 23 29 33 32 32 32 30 29
29 30 30 28 30 32 27 22 23 23 24 23 21 18 17 16 14 13 8 4 5 3 6 9 8 12 14 13 19 27 19 10 17 28 30 32 31 28 30 29 27 27 25 24 29 29 26 27 29 29 32 33 34 34 32 32 35 36 32 27 28 32 32 33 36 34 26 21 22 34 37 20 17 28 28 29 32 32 36 32 26 31 35 34 34 33 32 31
28 29 30 27 26 30 28 25 24 22 23 23 20 18 16 14 13 8 2 4 6 6 8 9 8 11 14 16 19 23 20 13 12 13 16 29 37 33 32 31 28 26 24 26 30 28 24 26 27 28 33 35 33 29 29 32 34 34 30 27 28 29 30 31 32 34 32 22 16 29 38 19 12 28 30 27 33 34 34 33 29 33 36 36 35 32 31 32
27 28 29 28 26 27 26 26 27 23 20 21 19 17 15 14 13 7 4 7 7 5 9 11 11 10 13 19 20 22 23 20 14 10 12 22 33 36 32 28 27 27 27 27 29 29 27 25 25 28 31 32 31 28 29 31 32 31 28 30 31 29 32 31 30 35 27 14 14 24 38 27 13 25 33 31 35 35 34 34 33 34 36 36 35 31 31 33
28 27 28 28 27 26 22 22 27 24 19 19 18 17 16 16 15 8 6 13 13 9 11 12 12 15 18 21 24 26 26 25 21 17 18 22 31 38 34 27 28 29 29 30 31 31 30 29 29 29 27 28 30 30 29 29 30 31 29 30 31 29 30 29 27 30 16 8 18 22 28 29 16 19 33 36 35 33 33 35 37 37 36 36 35 33 34 33
30 29 27 27 28 26 21 20 24 22 19 18 16 17 17 15 17 20 14 10 10 11 14 15 14 19 22 22 26 29 29 30 27 23 25 29 34 40 41 35 33 31 29 33 33 31 32 35 33 29 26 27 28 28 28 29 30 32 32 32 26 16 16 16 13 14 9 12 28 28 23 25 20 18 26 33 33 31 30 33 37 39 38 38 37 36 36 35
32 31 28 26 27 26 21 20 22 20 19 17 15 18 19 12 15 31 31 17 8 4 6 11 14 16 21 25 27 27 29 31 28 27 29 30 33 40 43 40 36 31 28 30 31 29 28 31 34 32 29 30 30 29 28 30 32 34 37 35 23 8 5 6 5 5 7 15 31 36 27 21 23 25 24 26 31 30 29 31 35 38 38 37 36 34 35 38
33 33 30 26 25 25 21 19 21 20 18 18 18 19 22 18 17 24 28 27 23 14 7 10 12 14 19 26 28 26 28 30 28 29 31 32 33 37 41 42 38 33 28 26 29 29 22 21 31 36 33 30 31 34 31 27 30 35 37 36 29 19 10 7 5 5 5 10 22 32 24 15 21 27 25 27 32 33 32 30 29 33 36 35 33 32 34 38
35 34 32 27 24 24 22 19 19 20 18 19 22 24 30 31 24 18 18 20 21 21 17 17 20 22 21 25 28 28 28 27 28 30 33 35 37 37 40 44 43 37 32 27 26 29 27 24 27 31 33 31 28 32 33 28 26 31 34 34 36 35 26 14 10 13 13 9 13 21 20 19 24 24 24 26 30 35 35 29 24 28 34 36 34 33 36 38
37 36 32 28 25 23 22 20 17 20 22 20 25 34 41 39 27 18 16 14 13 16 20 24 27 26 24 24 26 28 30 28 27 31 34 36 38 38 38 41 43 41 38 33 27 25 25 26 26 26 29 32 29 28 32 33 28 27 34 40 39 38 32 20 13 18 18 8 11 19 19 22 24 21 25 29 28 32 35 29 24 27 33 36 37 35 35 37
38 37 31 26 22 19 18 18 17 20 23 23 31 41 44 40 32 25 19 16 17 16 19 22 23 22 21 23 25 26 29 30 29 32 36 35 37 40 38 37 39 41 41 36 31 26 22 21 24 28 28 30 31 28 29 35 32 27 31 38 35 30 29 23 11 10 11 5 8 20 21 19 19 16 24 30 26 25 32 30 26 30 31 33 37 37 36 36
39 37 31 23 17 13 11 13 16 19 22 25 36 42 39 37 35 30 26 24 24 23 23 24 22 21 20 20 24 26 28 32 32 33 35 35 36 38 40 38 36 38 39 37 33 29 24 22 22 27 30 28 29 30 31 35 36 32 27 26 28 26 26 26 14 5 7 4 4 15 22 22 24 23 26 30 25 22 30 32 30 34 35 33 35 37 36 34
38 37 29 18 11 5 3 10 13 17 23 27 34 36 34 34 32 28 28 31 33 32 31 29 23 22 24 23 22 24 26 31 34 34 33 33 34 35 37 39 37 35 37 38 38 32 26 23 22 24 29 29 32 36 35 33 35 37 31 27 30 27 25 31 27 14 7 3 3 11 13 17 24 25 23 26 27 24 29 34 33 36 38 36 34 32 32 33
36 35 24 11 14 13 11 13 15 20 25 27 30 30 28 27 25 22 21 25 31 34 34 33 28 26 29 29 25 24 26 28 31 36 36 32 32 33 35 38 38 35 35 38 39 37 32 26 22 23 26 30 37 41 38 35 34 38 39 38 39 32 25 26 31 31 20 5 2 5 6 15 28 25 19 23 26 26 32 37 35 36 39 38 35 29 28 30
34 33 21 9 14 17 17 19 21 24 27 27 28 30 29 27 25 24 21 21 27 32 33 32 32 32 35 34 31 27 26 28 27 30 36 35 32 30 30 35 39 35 34 39 42 41 39 32 25 26 27 29 35 39 39 38 37 39 42 45 44 38 28 16 15 31 34 20 13 9 4 13 27 23 19 23 25 25 31 40 40 37 36 37 35 32 30 30
32 33 25 13 14 19 21 24 24 24 26 28 27 27 26 25 26 26 24 23 26 30 33 33 33 33 35 36 36 33 30 31 31 26 28 33 35 33 28 28 36 37 35 40 45 43 39 34 29 30 33 29 27 30 36 39 39 38 40 43 43 38 34 22 9 18 29 26 24 20 11 13 23 22 19 22 26 26 25 34 40 37 34 33 34 35 32 30
30 32 26 16 15 22 25 28 29 26 25 25 25 26 26 25 26 27 25 24 24 26 29 34 35 33 32 32 33 34 33 33 35 33 28 27 31 36 34 29 30 36 37 38 41 42 40 35 30 30 33 34 29 28 33 39 40 40 39 40 40 37 38 33 20 16 21 23 23 16 9 17 28 31 27 21 21 23 22 28 37 38 36 32 31 35 35 31
28 29 24 14 14 23 26 28 31 28 24 22 24 28 28 27 28 27 25 25 26 26 27 31 34 33 32 31 31 34 34 32 36 35 30 30 27 25 32 36 34 34 38 38 37 39 42 38 32 22 18 24 27 24 27 39 44 42 38 38 37 37 36 34 32 28 21 24 29 16 6 17 28 33 36 28 17 13 14 25 35 34 34 32 28 31 34 32
25 25 20 12 11 21 22 22 25 26 24 24 27 28 28 28 27 26 25 24 24 24 25 27 29 30 31 31 33 36 34 34 39 38 32 33 32 24 23 30 36 36 36 36 35 37 41 42 39 27 12 11 16 16 20 35 44 42 38 35 35 36 34 34 35 31 21 23 31 23 13 17 22 25 33 37 29 16 9 19 29 26 27 32 30 28 30 31
23 22 19 13 10 19 20 15 17 23 23 24 26 27 26 26 25 26 25 21 17 17 20 21 22 25 29 31 33 36 32 29 34 41 38 34 35 33 27 23 28 33 36 36 35 36 41 44 45 43 33 25 26 27 25 27 34 38 39 36 34 34 34 34 35 33 29 25 26 28 24 20 22 27 31 33 34 25 14 15 23 23 21 26 28 26 25 27
19 19 18 17 13 15 20 18 16 19 18 17 21 23 24 26 28 30 31 27 23 21 23 24 19 18 20 22 25 30 31 26 24 30 33 34 36 39 37 31 23 20 30 40 41 37 38 41 43 48 47 38 34 34 32 28 28 32 37 38 36 34 34 35 35 37 37 26 23 31 30 22 21 27 30 29 29 30 26 21 22 22 20 21 25 24 25 28
19 19 17 16 18 18 18 20 21 21 19 17 19 20 21 25 28 30 32 35 34 28 25 26 22 19 17 17 17 19 25 25 20 18 20 29 38 40 41 40 29 19 23 36 47 45 35 33 37 42 46 44 38 33 31 33 32 31 33 37 37 36 37 38 37 38 37 30 32 39 35 29 27 25 25 26 22 26 31 27 23 24 23 23 22 18 22 30
20 20 18 16 19 21 22 22 23 25 25 23 22 20 19 20 22 23 25 31 37 33 25 25 28 25 22 20 17 17 19 20 18 15 15 20 29 31 35 37 35 26 18 19 37 50 39 28 28 31 35 40 41 37 33 34 34 33 31 36 38 37 38 40 38 36 35 34 35 38 36 37 37 32 31 30 22 20 25 21 17 21 27 28 22 15 18 26
19 20 19 19 21 22 23 24 24 26 26 25 23 20 18 19 19 19 20 24 31 31 23 24 34 34 29 26 20 17 16 18 20 20 18 20 22 20 27 34 33 25 14 6 16 40 43 30 26 28 27 29 37 40 39 38 37 35 31 30 35 37 36 39 39 35 35 35 33 33 34 37 36 32 34 37 32 29 28 23 17 17 22 25 21 17 18 21
19 20 19 21 24 23 22 22 21 22 24 24 21 19 18 20 20 18 19 19 23 26 21 20 30 37 34 31 26 22 22 22 24 24 20 23 24 20 24 34 31 23 18 8 5 19 37 33 27 27 23 20 26 31 37 44 41 38 39 34 30 34 34 37 41 38 34 34 33 32 34 34 33 30 30 35 38 36 33 29 26 21 18 20 20 19 17 18
18 20 19 20 25 24 22 21 20 21 22 22 20 19 18 19 19 19 22 19 17 22 22 17 22 31 36 35 29 26 28 28 28 28 23 24 27 25 27 34 29 25 23 16 10 14 25 34 31 25 18 17 22 23 29 39 34 33 44 40 29 29 30 27 32 37 35 33 34 35 34 31 29 28 28 32 38 41 38 33 29 25 22 22 22 22 24 24
Wind_Direction
277 277 277 278 279 280 281 283 284 285 286 288 289 290 292 293 296 299 301 301 299 294 289 284 282 281 279 280 282 281 277 271 266 265 271 249 228 227 224 223 225 231 235 241 244 247 251 255 256 254 252 254 262 197 122 118 211 260 266 296 325 307 255 4 75 89 137 154 151 157 149 149 158 157 152 147 152 159 151 138 158 195 193 169 164 165 163 160
276 276 277 278 278 278 279 279 280 281 282 283 285 287 289 290 292 294 297 298 299 297 294 290 286 284 282 282 282 283 280 277 270 266 274 253 229 224 220 220 221 225 231 236 241 243 246 251 251 247 243 244 245 195 157 138 201 235 244 262 291 299 275 245 241 163 169 186 143 163 169 164 165 161 156 147 151 158 150 151 184 203 174 158 164 170 170 168
275 275 276 277 278 278 278 277 277 278 278 279 282 284 286 288 289 290 292 294 295 296 296 295 291 287 284 283 284 285 284 281 277 274 277 257 233 225 217 215 216 218 224 228 234 236 238 241 234 238 240 237 237 212 250 261 229 232 238 248 269 325 335 215 237 231 167 169 156 174 182 163 158 165 164 152 150 159 163 173 198 202 171 164 169 170 175 174
277 277 276 276 277 277 277 277 277 277 277 278 278 280 283 285 287 288 289 289 290 293 295 295 294 292 289 286 285 286 288 288 280 274 272 248 220 223 218 212 212 211 215 219 226 230 229 229 225 236 241 231 233 233 247 247 234 235 234 238 262 325 325 60 222 219 138 154 167 174 177 172 163 164 169 163 161 170 184 201 211 203 179 173 173 172 179 177
281 279 279 277 277 276 277 277 277 276 276 276 276 277 279 282 284 286 287 287 287 288 290 292 293 294 293 289 287 286 290 291 278 265 247 216 201 211 214 212 211 207 209 212 218 225 223 215 205 228 246 237 237 247 246 234 228 234 227 234 256 210 240 315 214 223 156 154 170 183 189 184 171 172 180 200 206 187 195 213 219 204 185 177 177 175 179 180
285 283 281 278 277 276 276 276 275 275 275 275 275 275 276 278 280 283 284 285 285 286 286 288 289 291 293 291 289 287 285 280 276 282 271 212 196 201 208 208 209 207 206 209 213 219 223 209 187 204 228 237 237 238 240 231 227 235 236 237 244 193 224 250 186 214 200 168 168 172 182 176 165 178 188 222 224 190 198 218 218 192 181 177 180 175 177 180
292 289 286 283 280 278 276 275 274 274 274 274 274 274 275 275 276 279 281 283 283 284 283 284 285 286 288 289 290 286 283 280 270 275 274 250 221 205 208 206 205 208 206 210 211 214 220 213 194 193 210 231 240 237 235 242 238 240 247 242 241 230 221 216 162 201 236 244 180 169 183 186 182 171 180 220 202 185 197 211 218 202 176 175 182 178 174 177
298 294 292 290 287 284 281 279 276 275 273 272 272 272 273 273 274 275 277 279 281 282 282 282 282 282 282 285 288 284 286 284 241 249 264 264 256 239 221 209 203 207 207 210 212 213 218 213 204 195 201 219 234 240 236 252 241 234 253 252 244 233 214 203 171 208 255 235 181 171 191 193 186 185 187 200 182 183 197 207 236 235 175 173 182 180 174 174
301 298 296 292 290 288 286 284 281 279 276 274 272 271 271 271 272 272 273 275 277 278 280 280 280 279 278 278 283 288 292 272 242 246 265 269 261 245 225 214 205 205 205 208 208 208 213 210 205 201 204 211 226 238 237 248 240 234 265 249 235 233 211 203 201 226 248 211 190 170 176 182 185 196 180 164 171 188 211 227 251 232 180 172 179 181 177 175
305 303 299 295 293 290 289 287 285 283 280 278 275 273 271 270 269 269 270 271 273 274 275 277 278 276 275 274 277 290 304 278 291 311 303 295 281 256 228 215 206 203 201 205 207 206 209 207 200 202 210 211 223 237 239 242 244 258 273 236 237 256 225 217 223 230 237 212 206 179 172 178 183 194 170 162 182 203 214 234 246 232 190 176 178 180 180 179
307 306 303 300 297 294 292 289 288 285 283 281 279 276 274 271 269 267 266 268 269 270 271 273 274 273 273 271 268 280 297 271 311 317 302 303 289 251 232 219 204 202 200 202 208 208 211 205 191 198 217 218 223 234 240 237 243 261 264 256 265 269 241 230 224 229 244 223 208 182 170 176 181 192 174 174 194 209 217 234 235 230 196 179 178 178 182 184
305 306 306 304 302 299 296 292 290 288 285 283 281 279 276 274 272 268 265 265 266 266 268 269 270 270 269 268 264 270 278 243 223 243 271 298 281 233 221 221 203 199 201 200 206 206 212 205 187 191 213 223 227 232 239 234 242 259 267 283 281 271 260 234 213 234 255 228 207 186 165 173 188 188 182 186 194 208 221 227 225 230 206 184 180 177 181 187
301 302 303 304 303 301 299 297 294 290 287 285 283 281 277 276 274 271 268 265 265 264 265 267 267 267 266 266 253 239 258 248 223 223 234 261 266 267 252 223 208 198 199 199 199 198 208 204 190 190 201 214 225 228 237 232 238 253 262 282 274 273 282 250 225 240 239 219 199 181 163 170 184 182 195 200 192 200 212 215 219 224 205 191 189 179 180 187
298 298 299 301 301 301 300 300 297 294 291 288 285 282 280 279 274 272 270 266 265 264 264 266 266 267 265 259 218 244 249 244 234 229 236 235 240 261 270 244 217 203 202 200 192 187 201 209 199 198 203 209 216 224 235 233 238 253 260 263 255 265 273 252 243 229 219 223 196 184 169 168 175 180 206 203 188 198 207 208 216 220 205 195 198 185 180 190
295 295 296 296 297 298 298 299 299 297 295 292 287 284 283 280 276 275 271 266 265 264 264 265 266 266 265 262 250 250 246 246 245 239 248 239 223 242 260 264 232 209 207 204 193 182 187 207 214 213 211 210 214 224 232 236 241 250 259 253 242 255 253 247 244 220 218 214 195 197 175 163 173 183 207 199 183 197 206 205 210 218 211 200 202 192 183 194
293 293 293 293 294 295 295 297 298 297 298 296 291 289 286 281 278 275 272 268 266 265 263 263 264 263 267 273 263 248 244 249 252 239 243 239 218 225 247 258 246 218 209 205 198 190 186 193 214 224 219 215 218 224 232 243 245 243 247 245 242 243 238 249 244 209 213 197 188 206 187 176 186 189 207 202 185 197 206 204 207 214 214 207 208 198 187 195
293 292 291 291 291 292 293 294 295 296 297 296 293 293 289 284 280 276 274 271 267 265 262 261 262 262 266 272 267 259 255 249 241 235 240 241 219 213 231 242 235 225 219 214 206 201 198 196 206 219 223 223 220 221 229 239 243 240 238 240 245 245 238 243 226 194 210 211 194 200 197 201 199 190 204 202 188 197 206 206 203 208 215 215 215 205 194 198
292 291 290 290 290 290 290 292 293 294 295 295 294 293 287 282 282 281 276 271 268 264 260 260 260 264 268 263 258 259 279 262 242 240 241 241 226 211 220 225 215 225 230 229 220 210 209 208 210 215 220 223 217 215 222 225 228 230 234 235 239 247 250 243 216 185 195 206 200 193 198 209 199 189 201 204 194 196 207 211 204 206 214 218 220 215 205 202
291 290 290 290 290 289 288 289 290 291 293 294 294 295 289 282 283 283 276 271 269 265 262 260 257 257 252 224 222 203 62 306 240 237 240 236 231 211 208 202 196 217 224 225 223 214 212 213 215 217 217 218 215 212 217 220 221 225 234 239 234 236 246 248 227 196 187 195 195 196 201 203 198 192 201 205 198 195 205 209 205 206 213 219 224 225 219 209
292 290 289 289 289 289 289 288 289 289 289 290 291 292 290 286 285 280 276 274 272 268 260 257 260 259 247 224 198 157 88 310 234 217 230 229 220 207 198 187 194 214 217 219 222 216 214 216 218 219 217 215 216 216 215 218 222 228 239 244 241 234 236 244 229 202 196 196 191 198 205 203 203 197 196 201 196 193 202 206 206 206 213 221 225 230 232 219
291 290 289 288 288 288 288 288 290 289 289 290 290 289 288 288 288 282 279 277 273 271 265 256 258 263 257 228 208 186 151 216 239 233 234 227 206 205 199 187 197 215 215 213 218 221 218 220 221 221 220 218 219 222 218 216 221 229 239 246 250 247 242 245 229 201 202 205 197 197 200 202 206 191 187 197 200 197 199 204 207 208 216 224 226 232 238 231
289 289 288 287 287 286 286 287 288 289 290 289 289 291 289 287 290 290 287 281 269 267 271 263 254 260 266 242 213 202 185 194 219 233 228 219 204 207 207 199 200 210 216 211 210 219 221 223 224 221 224 224 220 223 222 220 222 227 235 244 253 256 256 256 237 206 202 203 198 196 195 199 204 196 193 198 202 203 203 204 209 212 217 223 227 232 238 238
287 286 286 287 286 285 284 284 285 285 286 286 286 286 284 284 291 293 292 287 275 263 267 268 263 259 261 255 220 202 203 197 198 214 220 216 211 210 209 211 211 206 212 213 209 215 221 226 228 221 223 226 223 223 221 223 224 225 231 240 249 252 258 262 246 219 214 211 201 195 195 198 200 205 207 202 200 205 204 201 210 219 219 224 229 232 238 241
287 286 286 285 284 284 284 283 283 282 280 280 279 279 282 289 296 293 290 290 282 268 266 268 264 257 253 256 229 207 213 208 198 203 214 217 213 210 210 210 214 211 211 214 215 219 222 228 234 226 221 223 225 224 221 224 224 225 229 235 244 247 252 261 254 239 225 212 200 193 194 199 200 204 207 203 200 203 205 204 208 218 220 224 229 232 238 243
288 287 286 285 284 282 283 282 281 280 278 276 278 284 291 294 295 293 293 296 288 276 275 270 258 259 254 238 228 219 218 218 212 200 205 222 220 210 211 207 209 216 216 215 218 226 226 223 230 232 224 220 224 226 222 224 227 228 228 230 237 242 247 253 254 253 229 195 187 188 190 199 201 203 206 206 204 207 218 222 212 214 219 221 225 229 234 240
291 288 287 287 285 281 281 281 279 278 278 277 282 290 292 291 291 293 300 303 295 288 284 274 254 251 246 228 225 217 216 228 227 207 198 220 230 216 210 211 213 217 219 218 221 230 232 224 223 229 227 220 222 226 224 222 228 231 228 228 232 237 245 249 251 258 231 186 187 194 201 202 195 201 210 212 214 219 227 230 214 210 217 221 223 226 231 238
294 292 290 288 287 283 279 279 277 274 275 277 281 281 279 284 287 292 305 308 302 301 285 264 243 237 238 232 221 206 211 234 228 214 204 207 222 222 213 213 217 217 213 217 225 229 230 226 224 226 227 224 221 224 225 221 226 231 229 228 230 235 244 248 254 262 239 199 196 199 206 207 193 202 212 213 218 220 217 218 213 210 217 223 223 224 230 235
297 294 292 290 289 286 281 278 275 272 274 275 276 277 273 276 278 284 305 305 294 306 256 245 228 232 229 218 218 215 221 238 222 222 214 201 207 219 220 215 217 221 212 211 225 228 225 224 224 224 226 226 223 224 224 222 226 230 229 229 229 234 241 246 253 262 256 229 201 193 199 205 201 204 209 210 214 213 210 215 217 212 215 221 223 228 233 233
299 296 293 291 288 287 286 282 275 270 272 273 272 271 267 264 265 259 251 267 251 226 241 239 216 230 223 209 221 226 220 212 220 241 226 207 206 212 224 221 213 221 222 217 227 231 227 225 224 224 227 228 227 226 224 224 227 229 230 231 232 236 239 243 247 255 260 251 220 198 195 198 208 202 201 206 210 211 214 220 220 212 214 221 225 231 233 231
300 297 294 293 287 285 288 286 280 273 268 269 265 260 256 249 242 225 207 240 252 256 245 233 222 217 203 201 215 226 217 202 202 228 230 217 211 209 222 230 219 218 225 226 230 232 228 226 226 227 228 228 228 227 225 225 226 227 230 232 237 243 242 242 241 243 253 255 241 218 200 199 207 201 203 208 210 213 215 218 219 216 217 221 225 227 226 228
300 298 296 296 291 286 286 284 280 276 269 264 258 249 245 236 223 206 226 242 247 256 240 235 237 219 205 205 210 215 218 210 202 211 216 208 207 209 212 222 222 220 225 230 232 233 232 229 227 228 228 227 229 228 225 224 225 226 227 229 236 245 245 247 241 232 237 241 245 241 215 211 214 206 208 209 210 212 213 215 218 219 218 216 218 220 220 224
301 299 298 298 294 291 287 279 276 276 270 259 249 241 231 224 223 217 218 241 255 252 239 239 236 220 219 219 212 211 216 217 212 210 212 202 200 207 207 208 212 213 219 226 228 230 233 232 230 228 226 226 228 227 220 218 220 222 224 226 228 234 237 246 244 226 225 235 238 246 243 231 232 233 218 210 214 219 219 220 220 222 223 221 221 221 218 221
303 300 300 298 296 296 289 279 274 271 265 252 238 229 217 213 233 227 223 221 215 201 212 228 228 218 219 216 214 216 218 223 217 205 209 207 202 209 211 210 211 211 214 219 222 227 232 233 232 230 229 226 224 221 215 214 215 217 221 223 220 211 208 229 246 236 231 231 231 236 243 240 241 251 247 235 236 237 233 227 220 221 226 226 226 225 224 223
303 302 302 301 299 296 289 277 270 266 261 247 231 216 211 220 236 233 233 232 233 240 212 209 240 248 233 219 215 218 218 223 220 206 207 209 205 209 212 212 213 215 218 219 219 222 226 228 226 226 226 224 222 218 216 219 217 214 217 221 223 222 217 217 221 225 238 242 233 229 230 231 235 242 249 252 253 249 238 224 216 221 225 225 223 223 224 220
302 302 304 306 301 294 288 278 267 259 252 239 226 212 213 225 229 227 238 237 242 258 251 243 263 272 260 235 221 218 218 221 219 212 212 211 208 209 210 212 214 212 215 219 218 217 223 229 227 224 221 220 221 217 215 220 222 216 214 220 226 226 227 230 230 235 243 254 246 235 231 233 235 236 237 245 256 250 232 212 204 215 220 220 218 217 217 216
299 299 304 311 306 298 292 282 267 253 244 234 223 219 222 228 228 224 233 233 237 262 271 268 266 267 267 251 230 219 218 222 220 215 217 216 214 214 213 214 217 214 210 214 214 212 220 229 229 226 223 218 216 216 213 214 218 216 214 219 222 222 227 235 241 246 247 244 242 242 237 228 229 235 237 243 255 243 218 200 197 206 213 215 213 214 216 217
295 295 303 315 312 311 302 280 262 244 236 229 225 228 231 233 232 229 227 228 231 250 280 283 268 260 264 256 241 226 216 219 220 215 215 217 217 218 216 216 220 219 213 211 214 216 221 231 228 222 224 220 213 215 217 215 216 214 214 220 222 221 229 238 241 240 242 240 236 241 242 229 220 230 240 244 253 235 206 195 196 200 205 210 208 211 216 221
295 292 301 313 312 324 316 272 252 236 229 231 233 236 239 238 237 234 231 235 239 252 273 278 268 259 262 260 250 236 219 213 216 217 216 217 221 221 217 216 221 223 218 212 215 221 226 239 237 220 220 220 212 214 217 215 217 219 216 217 216 217 225 231 233 221 221 230 240 242 244 236 225 230 237 233 233 225 203 196 201 203 204 208 210 212 217 224
297 294 301 303 276 269 259 252 253 238 232 238 241 243 245 245 245 240 237 238 240 252 266 270 268 258 258 267 265 252 237 221 214 217 220 219 223 226 221 217 219 222 222 216 215 218 221 234 242 226 219 216 209 212 214 209 211 218 223 222 219 222 222 219 222 226 220 209 227 238 243 239 231 230 231 220 213 216 208 202 205 207 207 210 212 213 219 226
298 296 300 285 249 238 218 228 241 235 235 242 247 251 255 256 259 255 250 245 242 250 262 268 270 263 260 267 269 264 261 248 226 218 222 223 222 225 224 219 217 218 220 219 218 219 220 228 241 235 224 214 206 207 209 205 203 207 217 224 227 233 232 219 218 223 224 215 210 231 241 241 238 237 236 225 219 227 224 214 212 213 213 212 211 214 220 220
298 295 291 269 259 253 229 221 226 229 238 246 250 256 260 262 264 259 254 251 246 248 258 267 270 266 265 268 265 263 270 272 256 230 223 225 223 223 222 219 217 214 214 216 216 217 220 226 237 240 237 225 214 210 209 207 205 206 211 219 225 230 234 228 212 215 219 219 221 229 239 235 234 236 243 238 238 246 233 218 215 215 214 212 211 218 224 220
296 291 286 276 259 246 232 225 222 226 239 246 250 258 265 266 268 267 262 255 251 249 251 258 263 265 267 268 266 268 273 275 275 262 238 228 225 227 227 220 216 213 211 214 214 214 218 224 230 237 242 238 226 218 213 208 209 212 213 218 225 228 228 232 224 206 211 217 227 235 247 241 230 228 239 243 243 251 242 222 216 213 213 216 215 217 223 227
295 291 288 284 250 234 235 234 228 229 238 248 256 260 264 265 265 270 268 259 258 260 256 254 257 262 266 268 267 271 275 274 273 271 263 250 236 229 229 224 217 213 210 214 215 210 211 219 223 228 238 242 240 232 219 208 206 211 214 217 224 230 229 230 240 234 217 216 225 234 246 240 231 230 240 244 240 249 251 230 218 214 213 214 215 216 218 224
298 294 291 286 243 228 235 240 237 238 242 253 261 261 261 259 258 264 266 260 261 264 264 261 260 262 266 268 269 268 269 271 268 265 266 270 260 236 228 226 222 218 213 213 215 208 205 211 215 214 231 242 245 245 221 202 199 205 210 213 218 227 231 231 238 244 234 221 223 225 225 228 227 230 237 239 239 256 252 222 213 212 209 206 213 223 223 222
303 302 295 287 232 222 238 251 250 249 254 263 267 266 265 261 258 262 263 260 259 262 268 266 261 263 265 266 268 265 263 266 267 264 266 270 264 248 234 226 221 222 220 215 216 215 208 208 209 208 208 215 226 239 217 196 195 201 207 210 213 219 225 228 232 238 237 227 227 229 230 226 223 227 236 241 244 250 242 214 207 205 210 211 216 225 228 229
307 306 300 293 239 218 228 245 257 257 260 268 271 267 264 264 262 255 251 256 263 269 274 266 261 264 259 256 259 257 258 262 260 259 263 269 265 255 246 239 229 224 223 220 219 217 210 207 209 212 215 216 219 229 229 206 195 198 202 205 210 214 220 225 228 232 236 235 236 238 240 236 228 223 225 235 242 239 231 225 213 206 213 218 217 223 235 238
301 297 298 298 280 237 221 217 232 248 251 265 279 273 262 265 266 255 249 255 265 273 268 257 265 284 272 266 268 258 258 263 251 250 258 258 260 257 246 242 242 229 225 227 225 219 212 208 211 214 216 220 223 226 233 228 212 203 200 203 208 212 218 224 225 229 235 238 242 242 241 240 237 227 217 221 234 236 232 237 230 212 203 209 214 225 238 238
293 291 296 295 289 277 255 235 235 249 257 268 289 289 273 272 276 266 256 255 260 271 274 262 270 293 287 287 301 283 272 272 255 251 261 249 249 256 247 232 224 229 244 238 226 221 219 213 212 213 215 220 224 224 226 230 230 223 209 203 207 211 215 222 228 231 232 235 242 245 246 245 245 241 229 227 235 240 236 234 229 216 209 218 227 231 233 229
292 293 295 289 280 278 279 272 263 270 276 277 286 293 286 284 287 283 274 265 263 268 279 275 271 278 278 280 303 307 289 284 272 262 278 261 245 255 259 239 220 223 259 258 224 218 223 224 215 211 213 217 222 226 226 228 237 241 225 207 208 213 214 218 226 232 234 237 243 247 251 251 250 249 245 241 243 249 243 234 224 222 224 232 236 223 211 214
294 294 292 289 281 276 281 283 282 284 283 281 288 294 290 282 280 287 288 278 274 277 285 283 270 268 276 280 292 302 288 288 286 276 291 286 254 256 267 248 230 228 242 279 232 218 217 223 222 217 219 219 217 222 231 235 240 246 241 221 211 213 216 217 220 226 235 241 243 245 248 251 252 252 248 245 250 256 253 248 246 232 219 223 229 218 201 201
290 290 291 292 289 286 288 287 288 290 282 277 285 291 289 279 269 280 290 281 282 285 289 294 278 267 270 278 284 282 270 273 277 272 287 289 268 267 263 243 242 260 249 232 297 236 217 214 217 220 231 236 220 216 226 233 240 248 247 241 226 214 212 216 216 216 225 235 240 242 244 244 247 251 248 245 248 252 249 245 247 246 229 224 235 241 233 214
285 285 288 289 287 290 295 291 287 289 281 277 282 287 294 292 277 282 292 287 282 279 277 293 292 275 269 275 285 281 265 263 266 263 270 273 266 269 260 244 253 282 272 253 299 291 231 212 207 213 229 243 235 231 227 223 228 242 239 239 241 229 220 225 223 215 216 225 232 236 240 240 241 244 244 241 242 246 247 247 249 255 253 241 235 243 250 245
Height
3160 3160 3159 3159 3158 3158 3157 3156 3156 3155 3154 3154 3153 3152 3152 3151 3151 3150 3149 3148 3147 3147 3146 3146 3145 3145 3144 3143 3143 3143 3143 3143 3143 3143 3144 3145 3144 3145 3148 3151 3154 3156 3158 3161 3163 3165 3166 3168 3170 3171 3172 3172 3172 3173 3172 3172 3174 3175 3175 3176 3175 3175 3174 3174 3174 3173 3174 3174 3174 3175 3175 3176 3177 3177 3177 3178 3178 3178 3179 3180 3179 3179 3179 3180 3181 3181 3182 3183
3158 3158 3157 3157 3156 3156 3155 3155 3154 3154 3153 3152 3152 3151 3150 3150 3150 3149 3148 3147 3146 3146 3145 3144 3144 3143 3143 3142 3141 3141 3141 3141 3140 3141 3142 3142 3141 3143 3147 3149 3152 3154 3156 3159 3161 3164 3165 3167 3169 3170 3171 3171 3171 3172 3172 3172 3174 3174 3175 3176 3175 3174 3173 3173 3174 3174 3174 3174 3175 3175 3175 3176 3177 3177 3177 3177 3178 3179 3180 3180 3179 3178 3178 3180 3181 3181 3182 3183
3156 3156 3155 3155 3154 3154 3153 3153 3152 3152 3151 3151 3150 3150 3149 3149 3148 3148 3147 3146 3146 3145 3144 3143 3142 3142 3141 3140 3139 3139 3139 3139 3139 3139 3140 3140 3141 3142 3145 3147 3150 3152 3155 3157 3159 3162 3164 3166 3167 3168 3169 3170 3170 3171 3170 3171 3173 3173 3174 3175 3174 3174 3173 3172 3173 3174 3175 3174 3176 3176 3175 3175 3176 3177 3177 3177 3177 3179 3179 3178 3177 3176 3177 3179 3180 3181 3182 3183
3154 3153 3153 3153 3152 3152 3151 3151 3150 3150 3150 3149 3149 3148 3148 3147 3147 3146 3146 3145 3144 3144 3143 3142 3141 3140 3140 3139 3138 3137 3137 3137 3137 3138 3138 3139 3140 3141 3143 3146 3148 3150 3153 3155 3157 3159 3162 3164 3165 3167 3168 3168 3169 3170 3169 3171 3173 3172 3173 3173 3173 3172 3172 3172 3173 3174 3174 3175 3176 3177 3176 3175 3176 3177 3177 3176 3176 3178 3177 3176 3176 3176 3177 3178 3179 3180 3182 3183
3152 3152 3151 3151 3150 3149 3149 3149 3148 3148 3148 3147 3147 3146 3146 3145 3145 3145 3144 3144 3143 3143 3142 3141 3140 3139 3138 3137 3137 3136 3136 3136 3135 3136 3137 3137 3139 3140 3142 3144 3146 3148 3150 3153 3154 3157 3159 3161 3164 3166 3167 3167 3168 3169 3168 3170 3172 3171 3170 3169 3169 3169 3170 3172 3173 3172 3172 3174 3175 3176 3176 3175 3176 3177 3177 3176 3174 3174 3174 3174 3176 3177 3178 3178 3178 3180 3181 3182
3150 3150 3149 3148 3148 3147 3147 3147 3146 3146 3146 3145 3145 3144 3144 3144 3143 3143 3142 3142 3141 3141 3140 3140 3139 3138 3137 3136 3135 3135 3135 3135 3133 3134 3136 3137 3138 3139 3141 3142 3144 3147 3148 3150 3152 3155 3157 3159 3162 3164 3166 3167 3167 3167 3166 3168 3171 3169 3167 3167 3167 3168 3170 3172 3173 3172 3170 3172 3174 3175 3175 3175 3176 3176 3176 3175 3173 3172 3172 3173 3176 3178 3179 3179 3179 3180 3181 3182
3148 3148 3147 3146 3146 3145 3145 3144 3144 3144 3143 3143 3143 3142 3142 3142 3142 3141 3141 3140 3140 3139 3139 3138 3138 3137 3136 3134 3134 3133 3133 3134 3133 3133 3134 3135 3137 3138 3139 3141 3143 3144 3146 3148 3150 3153 3155 3157 3160 3162 3165 3166 3166 3166 3165 3167 3169 3169 3167 3167 3167 3167 3168 3170 3172 3173 3171 3171 3173 3174 3175 3175 3176 3176 3176 3175 3174 3173 3172 3173 3176 3178 3178 3179 3179 3180 3181 3182
3147 3146 3145 3144 3144 3143 3142 3142 3142 3141 3141 3141 3141 3140 3140 3140 3139 3139 3139 3138 3138 3137 3137 3137 3136 3136 3135 3134 3132 3132 3132 3133 3133 3132 3133 3134 3135 3137 3138 3139 3141 3142 3144 3147 3149 3151 3153 3155 3157 3160 3162 3163 3165 3165 3165 3166 3166 3166 3165 3166 3167 3166 3166 3167 3169 3171 3171 3170 3170 3172 3174 3175 3176 3176 3176 3174 3173 3173 3173 3174 3176 3178 3178 3178 3179 3180 3181 3182
3145 3144 3143 3142 3142 3141 3140 3140 3140 3139 3139 3138 3138 3138 3138 3137 3137 3137 3137 3136 3136 3135 3135 3135 3135 3134 3134 3133 3131 3130 3131 3131 3132 3132 3132 3133 3134 3135 3136 3137 3139 3141 3143 3145 3147 3149 3151 3153 3155 3159 3160 3162 3164 3163 3165 3165 3164 3164 3164 3164 3166 3165 3165 3164 3166 3168 3169 3169 3167 3169 3173 3174 3175 3176 3177 3174 3172 3172 3173 3175 3176 3177 3178 3178 3178 3180 3181 3181
3143 3142 3141 3140 3139 3139 3138 3138 3137 3137 3136 3136 3136 3135 3135 3135 3135 3135 3135 3134 3134 3133 3133 3133 3132 3132 3132 3131 3130 3130 3130 3129 3130 3130 3131 3131 3132 3133 3134 3135 3137 3138 3141 3143 3145 3147 3149 3151 3154 3158 3160 3161 3163 3162 3163 3162 3161 3163 3164 3164 3165 3166 3165 3163 3164 3165 3167 3167 3166 3167 3171 3173 3174 3176 3176 3174 3172 3172 3173 3175 3176 3176 3177 3177 3178 3179 3180 3181
3141 3140 3139 3138 3137 3136 3136 3135 3135 3134 3134 3134 3133 3133 3133 3132 3132 3132 3132 3132 3131 3131 3131 3130 3130 3130 3129 3129 3129 3129 3129 3128 3127 3128 3129 3129 3130 3132 3132 3133 3135 3137 3139 3141 3143 3145 3148 3150 3153 3158 3159 3160 3160 3161 3161 3159 3158 3161 3161 3160 3161 3163 3164 3163 3162 3163 3165 3165 3164 3166 3169 3172 3173 3174 3175 3172 3171 3172 3173 3174 3175 3176 3176 3177 3177 3178 3179 3180
3139 3138 3137 3136 3135 3134 3134 3133 3133 3132 3131 3131 3131 3131 3130 3130 3129 3129 3130 3129 3129 3128 3128 3128 3128 3127 3127 3126 3127 3128 3128 3128 3127 3127 3127 3127 3128 3130 3131 3132 3133 3135 3137 3139 3142 3144 3147 3149 3151 3154 3157 3158 3159 3159 3159 3158 3157 3158 3158 3158 3157 3159 3161 3161 3161 3162 3163 3163 3163 3164 3167 3169 3171 3173 3173 3171 3171 3171 3172 3173 3175 3175 3176 3176 3177 3178 3179 3180
3137 3136 3136 3135 3134 3133 3132 3131 3130 3130 3129 3129 3128 3128 3127 3127 3127 3126 3127 3127 3126 3125 3125 3125 3124 3124 3124 3122 3124 3126 3126 3127 3127 3126 3126 3127 3127 3128 3129 3131 3132 3133 3135 3137 3140 3143 3146 3148 3149 3151 3154 3155 3157 3158 3158 3159 3158 3158 3159 3159 3158 3157 3157 3158 3159 3161 3162 3162 3162 3161 3164 3167 3169 3172 3172 3171 3171 3170 3171 3173 3174 3175 3175 3176 3176 3177 3179 3179
3135 3134 3133 3133 3132 3130 3130 3129 3128 3128 3127 3127 3126 3126 3125 3125 3124 3123 3124 3124 3123 3123 3123 3122 3122 3121 3120 3119 3123 3124 3124 3124 3124 3124 3125 3127 3128 3128 3128 3130 3131 3132 3134 3136 3138 3141 3144 3147 3148 3149 3151 3152 3153 3156 3156 3157 3158 3158 3159 3159 3158 3157 3155 3155 3157 3159 3159 3161 3162 3160 3162 3165 3167 3171 3171 3170 3171 3169 3170 3172 3173 3175 3175 3175 3176 3177 3178 3179
3133 3132 3131 3130 3129 3128 3127 3127 3126 3126 3125 3125 3124 3123 3123 3122 3121 3121 3121 3121 3120 3120 3120 3120 3119 3117 3116 3116 3120 3121 3121 3121 3121 3123 3124 3125 3126 3127 3127 3128 3130 3131 3132 3134 3136 3139 3142 3145 3147 3147 3148 3150 3152 3153 3153 3154 3155 3156 3156 3155 3156 3156 3154 3153 3154 3157 3157 3159 3160 3159 3161 3163 3166 3170 3169 3169 3171 3170 3170 3171 3172 3174 3174 3175 3175 3176 3178 3179
3131 3130 3129 3128 3127 3126 3125 3125 3124 3124 3123 3123 3122 3122 3121 3120 3119 3119 3118 3117 3117 3117 3118 3117 3115 3114 3113 3114 3116 3118 3118 3118 3119 3121 3122 3122 3123 3126 3127 3127 3129 3130 3131 3133 3135 3137 3139 3142 3144 3145 3146 3148 3149 3151 3152 3152 3152 3153 3154 3153 3153 3154 3153 3152 3152 3155 3157 3158 3158 3158 3160 3162 3164 3168 3168 3168 3170 3170 3169 3170 3172 3173 3174 3175 3175 3176 3177 3178
3129 3128 3127 3126 3125 3124 3123 3122 3122 3121 3121 3120 3119 3120 3119 3117 3116 3116 3115 3115 3114 3114 3115 3114 3112 3111 3112 3112 3113 3115 3116 3116 3117 3118 3119 3119 3121 3124 3126 3126 3127 3129 3130 3132 3134 3135 3137 3139 3141 3143 3144 3145 3147 3149 3150 3149 3149 3150 3151 3151 3151 3151 3150 3150 3150 3152 3154 3156 3157 3158 3159 3161 3163 3166 3167 3166 3169 3170 3169 3170 3171 3172 3173 3174 3175 3175 3176 3177
3127 3126 3125 3124 3123 3122 3121 3120 3120 3119 3119 3118 3117 3117 3117 3114 3113 3114 3113 3112 3112 3111 3112 3111 3109 3108 3110 3110 3111 3113 3114 3114 3115 3116 3116 3117 3119 3121 3123 3125 3126 3128 3130 3131 3132 3134 3135 3137 3138 3140 3140 3141 3143 3145 3144 3144 3147 3147 3148 3149 3149 3148 3148 3148 3149 3150 3150 3152 3155 3156 3158 3160 3161 3164 3166 3165 3167 3169 3168 3169 3170 3171 3172 3173 3174 3175 3175 3176
3124 3124 3123 3122 3121 3120 3119 3118 3117 3117 3117 3116 3115 3114 3114 3112 3112 3111 3109 3108 3109 3109 3109 3108 3105 3106 3108 3109 3110 3111 3112 3113 3114 3114 3115 3115 3117 3119 3120 3123 3125 3128 3129 3129 3130 3131 3133 3135 3136 3135 3134 3136 3137 3139 3140 3143 3146 3146 3146 3147 3147 3146 3145 3145 3147 3148 3148 3149 3152 3154 3156 3159 3160 3161 3164 3164 3165 3168 3168 3168 3169 3170 3171 3172 3173 3173 3174 3175
3120 3120 3120 3120 3119 3118 3117 3116 3115 3114 3114 3114 3113 3112 3111 3109 3110 3108 3105 3105 3106 3106 3106 3105 3102 3102 3105 3108 3109 3109 3111 3114 3114 3114 3114 3115 3115 3117 3118 3120 3123 3126 3126 3127 3128 3129 3132 3132 3130 3128 3129 3133 3136 3138 3140 3143 3146 3145 3144 3144 3144 3145 3143 3142 3144 3144 3146 3147 3149 3152 3155 3157 3158 3159 3162 3163 3164 3166 3167 3167 3168 3169 3169 3170 3171 3172 3173 3174
3117 3117 3117 3117 3117 3115 3114 3113 3113 3112 3111 3111 3110 3109 3108 3106 3106 3105 3102 3101 3103 3102 3102 3103 3101 3098 3100 3106 3107 3106 3108 3111 3113 3113 3113 3114 3115 3115 3116 3118 3120 3122 3122 3125 3127 3128 3129 3126 3124 3126 3130 3133 3136 3138 3140 3142 3143 3144 3143 3141 3141 3141 3140 3141 3142 3140 3141 3144 3145 3148 3152 3154 3155 3156 3159 3162 3163 3164 3165 3166 3167 3167 3167 3168 3169 3170 3171 3173
3113 3113 3113 3114 3114 3113 3112 3111 3111 3110 3109 3108 3107 3107 3106 3104 3104 3102 3099 3097 3099 3100 3098 3099 3099 3096 3097 3102 3105 3105 3104 3105 3108 3111 3111 3111 3113 3113 3114 3116 3117 3119 3121 3123 3125 3125 3124 3120 3122 3127 3130 3133 3135 3137 3138 3139 3141 3142 3141 3140 3138 3138 3139 3140 3141 3140 3139 3141 3143 3145 3148 3152 3153 3154 3156 3159 3161 3162 3163 3164 3166 3166 3166 3166 3167 3169 3170 3171
3110 3109 3110 3110 3111 3111 3110 3109 3109 3108 3107 3106 3105 3105 3103 3102 3102 3100 3097 3093 3093 3096 3096 3096 3096 3094 3095 3097 3101 3103 3100 3100 3103 3106 3108 3109 3110 3111 3113 3114 3115 3117 3119 3119 3120 3120 3118 3117 3122 3127 3130 3132 3133 3134 3136 3137 3138 3138 3138 3138 3136 3136 3137 3137 3138 3140 3138 3138 3141 3143 3146 3149 3151 3152 3152 3155 3158 3160 3161 3163 3164 3165 3165 3165 3165 3167 3168 3169
3107 3107 3106 3107 3108 3109 3107 3107 3107 3105 3105 3103 3102 3102 3101 3101 3100 3097 3095 3091 3088 3090 3093 3093 3092 3091 3092 3094 3098 3098 3096 3098 3100 3102 3105 3105 3107 3109 3110 3112 3113 3114 3115 3116 3117 3116 3115 3118 3122 3125 3127 3129 3130 3131 3133 3134 3134 3134 3134 3135 3134 3134 3136 3135 3136 3138 3137 3136 3138 3141 3144 3146 3147 3149 3150 3151 3154 3157 3159 3160 3162 3163 3164 3164 3165 3165 3166 3167
3104 3103 3103 3103 3104 3105 3105 3105 3104 3103 3102 3101 3101 3102 3101 3100 3099 3096 3093 3089 3084 3085 3088 3088 3088 3088 3089 3092 3092 3093 3095 3096 3095 3098 3102 3102 3104 3106 3107 3109 3110 3111 3112 3114 3115 3114 3114 3118 3121 3122 3123 3125 3127 3128 3129 3130 3131 3131 3131 3131 3132 3133 3133 3133 3133 3135 3135 3135 3136 3138 3141 3142 3143 3145 3147 3148 3151 3153 3155 3157 3159 3160 3161 3162 3163 3163 3164 3165
3101 3100 3100 3100 3099 3101 3103 3102 3101 3100 3098 3099 3100 3101 3100 3099 3098 3095 3093 3089 3082 3080 3082 3082 3084 3084 3084 3086 3086 3091 3094 3091 3091 3097 3099 3100 3102 3103 3105 3106 3106 3107 3109 3112 3113 3112 3112 3116 3118 3119 3120 3121 3123 3123 3124 3127 3128 3127 3127 3130 3131 3131 3131 3130 3131 3133 3133 3132 3134 3136 3138 3140 3141 3142 3143 3145 3147 3149 3151 3153 3155 3156 3158 3159 3160 3161 3162 3163
3098 3097 3097 3097 3095 3096 3100 3100 3099 3098 3097 3097 3098 3099 3098 3097 3097 3095 3094 3091 3082 3077 3077 3077 3080 3080 3080 3083 3084 3087 3088 3085 3088 3093 3094 3097 3099 3101 3102 3103 3103 3103 3107 3110 3109 3107 3109 3113 3114 3115 3117 3117 3118 3119 3121 3125 3125 3123 3125 3129 3130 3129 3129 3128 3128 3130 3131 3130 3130 3131 3134 3136 3136 3137 3139 3142 3143 3145 3147 3148 3151 3153 3154 3155 3156 3158 3159 3160
3095 3093 3093 3094 3092 3090 3094 3097 3096 3095 3095 3095 3096 3097 3096 3096 3096 3095 3096 3094 3082 3075 3075 3075 3077 3078 3078 3081 3080 3081 3083 3083 3085 3087 3090 3095 3097 3097 3098 3099 3100 3101 3104 3106 3103 3103 3107 3108 3109 3112 3113 3112 3113 3115 3119 3122 3122 3121 3125 3128 3128 3128 3128 3127 3127 3127 3129 3129 3127 3127 3129 3131 3132 3133 3136 3139 3140 3141 3142 3144 3147 3150 3151 3152 3153 3155 3156 3157
3092 3090 3089 3091 3090 3088 3089 3092 3092 3093 3093 3093 3094 3094 3094 3095 3095 3094 3097 3092 3078 3073 3074 3074 3076 3077 3076 3078 3078 3079 3082 3083 3083 3085 3088 3091 3093 3094 3094 3096 3099 3100 3102 3102 3100 3101 3104 3104 3106 3108 3108 3108 3111 3114 3117 3119 3119 3121 3124 3125 3126 3126 3126 3126 3126 3125 3126 3125 3123 3124 3125 3126 3128 3129 3132 3135 3136 3137 3138 3140 3143 3146 3148 3149 3150 3152 3153 3154
3088 3087 3085 3086 3087 3086 3087 3087 3086 3089 3091 3090 3091 3091 3091 3092 3092 3094 3095 3085 3073 3072 3073 3072 3075 3076 3075 3075 3076 3077 3079 3081 3083 3085 3086 3087 3090 3092 3093 3095 3098 3099 3099 3099 3099 3099 3100 3102 3104 3104 3104 3106 3110 3112 3113 3115 3117 3120 3123 3123 3123 3123 3123 3123 3123 3123 3123 3119 3119 3121 3121 3121 3122 3122 3125 3128 3129 3132 3134 3136 3138 3141 3144 3146 3147 3149 3150 3151
3085 3084 3082 3082 3082 3083 3086 3085 3081 3084 3088 3087 3088 3089 3088 3089 3091 3090 3084 3075 3071 3071 3070 3071 3073 3074 3073 3073 3073 3074 3076 3078 3081 3083 3084 3084 3087 3089 3091 3093 3094 3095 3096 3095 3095 3096 3097 3098 3098 3100 3103 3105 3107 3108 3110 3112 3116 3118 3119 3121 3121 3120 3120 3119 3119 3120 3118 3114 3115 3119 3120 3119 3117 3116 3118 3121 3123 3127 3129 3131 3133 3136 3138 3141 3143 3145 3147 3148
3081 3080 3080 3079 3078 3079 3082 3082 3079 3081 3083 3083 3085 3085 3085 3087 3084 3077 3072 3070 3071 3068 3066 3068 3069 3070 3071 3071 3071 3072 3073 3075 3077 3079 3080 3080 3082 3082 3083 3084 3086 3088 3089 3089 3090 3092 3093 3092 3093 3096 3099 3101 3103 3105 3106 3109 3111 3113 3115 3117 3117 3117 3118 3116 3114 3114 3112 3111 3113 3116 3117 3115 3112 3113 3115 3117 3120 3121 3123 3126 3128 3130 3133 3136 3139 3142 3144 3146
3077 3076 3077 3077 3075 3075 3078 3078 3077 3077 3079 3081 3082 3081 3083 3083 3071 3062 3066 3070 3068 3064 3065 3068 3068 3069 3070 3069 3070 3071 3071 3072 3073 3076 3077 3077 3078 3078 3079 3080 3082 3083 3083 3086 3088 3089 3089 3089 3091 3093 3094 3096 3098 3099 3101 3103 3106 3108 3109 3111 3112 3112 3115 3114 3112 3110 3109 3109 3110 3113 3114 3109 3108 3111 3113 3114 3115 3116 3118 3120 3123 3125 3128 3131 3135 3138 3140 3142
3073 3072 3073 3074 3073 3071 3073 3075 3074 3074 3076 3077 3077 3078 3078 3072 3060 3058 3064 3067 3065 3064 3064 3065 3066 3068 3067 3066 3067 3069 3069 3069 3071 3073 3074 3074 3074 3074 3075 3078 3080 3081 3083 3085 3085 3085 3085 3084 3085 3087 3088 3090 3092 3094 3097 3100 3102 3103 3105 3108 3107 3106 3109 3110 3109 3108 3107 3107 3108 3110 3108 3104 3104 3107 3110 3112 3112 3112 3113 3115 3118 3121 3123 3127 3130 3133 3135 3138
3070 3068 3069 3070 3070 3068 3068 3071 3071 3071 3072 3072 3073 3073 3066 3057 3055 3060 3064 3065 3067 3067 3065 3063 3063 3062 3062 3063 3063 3065 3066 3066 3067 3070 3071 3069 3068 3069 3070 3071 3074 3078 3080 3081 3080 3082 3081 3079 3080 3083 3085 3087 3089 3091 3095 3098 3098 3099 3103 3104 3100 3101 3104 3105 3105 3105 3106 3106 3105 3104 3103 3101 3103 3105 3108 3110 3109 3108 3109 3112 3115 3117 3120 3123 3126 3129 3131 3134
3066 3065 3067 3067 3066 3065 3065 3066 3068 3068 3067 3068 3067 3061 3053 3051 3056 3061 3062 3064 3067 3067 3064 3060 3058 3058 3057 3058 3059 3060 3062 3063 3065 3066 3065 3065 3064 3065 3066 3066 3069 3072 3074 3075 3076 3077 3077 3076 3079 3082 3082 3084 3086 3088 3091 3092 3092 3095 3097 3094 3094 3100 3103 3103 3103 3103 3105 3105 3102 3100 3100 3100 3102 3103 3104 3106 3105 3106 3107 3110 3113 3115 3117 3120 3122 3125 3128 3131
3062 3062 3064 3065 3063 3063 3062 3061 3063 3063 3062 3063 3058 3050 3047 3051 3056 3058 3060 3062 3062 3063 3062 3058 3054 3055 3055 3054 3055 3057 3058 3059 3061 3060 3060 3061 3060 3060 3063 3064 3065 3067 3069 3072 3074 3074 3074 3074 3076 3078 3078 3080 3083 3085 3086 3087 3088 3090 3090 3091 3095 3101 3101 3101 3102 3102 3103 3103 3100 3098 3097 3097 3098 3098 3101 3102 3102 3104 3106 3109 3111 3113 3116 3118 3120 3123 3125 3128
3057 3057 3062 3063 3060 3058 3058 3058 3058 3059 3059 3056 3050 3045 3048 3050 3052 3056 3058 3058 3058 3057 3057 3055 3053 3051 3051 3052 3052 3053 3054 3054 3055 3056 3056 3056 3054 3055 3059 3061 3063 3064 3067 3071 3071 3071 3073 3072 3071 3073 3074 3076 3080 3082 3082 3083 3087 3088 3089 3092 3096 3096 3096 3098 3099 3099 3101 3100 3097 3096 3095 3094 3094 3094 3097 3099 3100 3101 3103 3106 3108 3109 3112 3114 3117 3120 3122 3125
3052 3053 3058 3060 3055 3053 3055 3056 3056 3056 3054 3050 3046 3045 3047 3047 3050 3054 3055 3056 3056 3054 3052 3052 3053 3050 3047 3047 3048 3050 3051 3050 3051 3052 3051 3051 3050 3050 3054 3057 3060 3061 3064 3067 3067 3068 3071 3070 3067 3069 3071 3073 3074 3074 3074 3078 3084 3087 3089 3090 3091 3091 3091 3093 3094 3095 3097 3097 3096 3096 3092 3090 3090 3092 3094 3095 3097 3099 3099 3101 3103 3104 3107 3109 3113 3116 3119 3121
3048 3049 3054 3055 3051 3049 3050 3052 3053 3052 3049 3046 3044 3045 3045 3046 3049 3051 3054 3055 3055 3053 3051 3050 3052 3049 3045 3044 3044 3045 3046 3045 3046 3047 3046 3046 3047 3047 3049 3052 3056 3058 3061 3063 3064 3065 3067 3066 3065 3065 3067 3068 3065 3064 3068 3074 3078 3081 3083 3082 3083 3085 3087 3088 3089 3090 3091 3092 3093 3094 3090 3086 3087 3091 3092 3093 3095 3097 3097 3097 3098 3099 3101 3104 3108 3112 3115 3117
3044 3044 3050 3052 3049 3047 3046 3046 3046 3047 3046 3044 3043 3044 3044 3045 3046 3047 3050 3052 3050 3049 3048 3047 3048 3046 3043 3042 3040 3039 3040 3039 3039 3042 3042 3042 3043 3043 3045 3047 3050 3055 3057 3058 3059 3060 3062 3063 3063 3062 3061 3060 3059 3061 3065 3070 3072 3074 3076 3076 3077 3080 3083 3085 3084 3083 3085 3086 3087 3089 3087 3084 3086 3089 3091 3092 3093 3094 3094 3094 3095 3097 3098 3101 3104 3107 3110 3113
3039 3039 3045 3050 3047 3044 3043 3041 3041 3042 3042 3041 3041 3043 3043 3043 3044 3044 3046 3048 3046 3045 3045 3043 3043 3042 3042 3041 3039 3038 3038 3035 3033 3035 3036 3038 3040 3040 3042 3044 3045 3049 3052 3051 3052 3055 3059 3060 3060 3058 3056 3056 3059 3061 3061 3064 3069 3071 3072 3073 3075 3077 3079 3080 3079 3079 3081 3082 3083 3086 3083 3081 3085 3088 3089 3090 3090 3090 3092 3093 3094 3096 3098 3099 3101 3103 3106 3109
3034 3033 3040 3045 3043 3040 3038 3036 3037 3038 3038 3039 3040 3041 3041 3041 3042 3042 3043 3044 3044 3043 3043 3040 3039 3039 3039 3040 3039 3037 3037 3034 3030 3029 3029 3031 3035 3038 3041 3043 3043 3044 3047 3047 3047 3051 3055 3056 3055 3056 3056 3054 3055 3058 3058 3058 3063 3066 3066 3069 3072 3073 3075 3077 3079 3080 3079 3079 3082 3084 3080 3079 3084 3087 3087 3088 3089 3088 3089 3090 3091 3093 3095 3097 3099 3100 3103 3106
3029 3029 3035 3038 3037 3036 3034 3032 3034 3036 3036 3037 3038 3037 3038 3038 3038 3039 3040 3041 3041 3041 3041 3038 3037 3038 3037 3038 3038 3035 3035 3033 3027 3025 3026 3025 3026 3031 3035 3039 3041 3040 3040 3042 3044 3045 3046 3048 3050 3052 3054 3053 3051 3052 3052 3052 3054 3058 3061 3064 3067 3070 3073 3076 3078 3078 3077 3075 3078 3079 3077 3076 3080 3085 3085 3084 3085 3086 3086 3086 3088 3090 3093 3095 3097 3098 3099 3102
3027 3026 3029 3032 3033 3031 3030 3031 3033 3034 3035 3036 3035 3034 3034 3034 3035 3036 3036 3035 3036 3037 3036 3034 3035 3036 3035 3034 3031 3029 3030 3032 3026 3022 3022 3021 3020 3023 3027 3033 3038 3039 3037 3039 3041 3040 3039 3040 3043 3044 3045 3046 3044 3042 3044 3047 3049 3052 3056 3060 3063 3066 3069 3071 3073 3073 3071 3071 3073 3073 3072 3073 3077 3082 3083 3081 3082 3085 3087 3087 3088 3090 3091 3093 3095 3096 3097 3099
3026 3025 3025 3026 3027 3027 3027 3029 3032 3032 3032 3032 3029 3029 3030 3029 3029 3029 3029 3029 3030 3031 3029 3028 3028 3028 3026 3023 3022 3021 3022 3024 3022 3019 3020 3020 3018 3017 3017 3019 3025 3031 3034 3035 3037 3036 3034 3033 3034 3035 3036 3038 3039 3039 3042 3046 3048 3048 3051 3055 3059 3062 3065 3067 3068 3066 3065 3068 3069 3068 3069 3072 3074 3077 3079 3079 3080 3082 3085 3087 3088 3089 3090 3092 3094 3095 3096 3097
3025 3024 3024 3024 3023 3023 3023 3024 3026 3026 3026 3027 3025 3024 3024 3023 3022 3024 3025 3026 3027 3026 3025 3025 3024 3022 3019 3018 3018 3017 3014 3013 3014 3014 3013 3011 3008 3007 3007 3008 3012 3018 3024 3029 3031 3031 3029 3027 3027 3029 3032 3036 3039 3041 3042 3044 3045 3046 3047 3050 3054 3058 3062 3063 3062 3060 3064 3066 3064 3064 3068 3070 3071 3073 3076 3077 3079 3080 3083 3085 3086 3087 3088 3089 3092 3093 3094 3095
3024 3023 3024 3024 3023 3021 3020 3021 3021 3021 3021 3022 3023 3022 3021 3021 3021 3022 3022 3022 3023 3024 3023 3022 3020 3018 3017 3017 3016 3014 3010 3008 3010 3008 3005 3003 3003 3003 3003 3003 3007 3013 3016 3019 3024 3026 3024 3023 3024 3026 3029 3034 3037 3040 3040 3040 3041 3043 3045 3046 3049 3053 3056 3057 3057 3059 3063 3063 3059 3062 3067 3068 3069 3072 3074 3076 3078 3079 3080 3083 3085 3086 3086 3086 3088 3090 3091 3092
3023 3022 3022 3023 3022 3020 3019 3019 3019 3018 3018 3019 3020 3020 3019 3019 3020 3021 3021 3019 3018 3020 3020 3017 3015 3015 3016 3016 3016 3014 3011 3009 3008 3005 3003 3002 3002 3001 2998 2998 3002 3008 3008 3008 3014 3020 3019 3019 3023 3025 3027 3031 3034 3036 3038 3038 3038 3040 3041 3042 3044 3047 3050 3052 3055 3058 3060 3060 3060 3063 3065 3064 3066 3070 3070 3072 3076 3078 3079 3081 3083 3085 3085 3084 3085 3087 3089 3091
3022 3021 3020 3020 3019 3018 3018 3018 3017 3016 3016 3016 3017 3017 3017 3017 3017 3018 3019 3019 3016 3015 3016 3015 3012 3013 3014 3013 3013 3013 3012 3010 3007 3005 3004 3002 3001 3001 3000 2999 3000 3003 3004 3002 3005 3013 3014 3014 3019 3023 3025 3027 3029 3033 3035 3035 3035 3037 3037 3038 3040 3043 3046 3049 3052 3056 3058 3057 3059 3062 3061 3060 3063 3067 3069 3069 3071 3074 3076 3078 3080 3083 3084 3083 3083 3085 3087 3090
3020 3019 3019 3017 3016 3016 3016 3016 3016 3015 3014 3014 3015 3014 3013 3013 3014 3013 3013 3015 3015 3013 3012 3012 3009 3008 3009 3010 3010 3010 3009 3008 3005 3005 3005 3003 3002 3003 3001 2998 2999 3001 3002 3001 3002 3007 3010 3011 3014 3019 3021 3021 3025 3030 3032 3033 3036 3035 3032 3032 3036 3039 3042 3044 3046 3049 3052 3054 3056 3058 3057 3057 3061 3065 3068 3068 3068 3070 3072 3075 3078 3081 3083 3083 3083 3083 3085 3087
3018 3017 3017 3016 3013 3013 3014 3014 3014 3014 3012 3013 3013 3012 3011 3011 3011 3011 3009 3009 3011 3010 3009 3010 3008 3005 3005 3006 3007 3007 3006 3004 3002 3002 3003 3000 3000 3001 2998 2995 2997 3000 3000 3001 3000 3003 3007 3007 3008 3014 3017 3017 3022 3026 3028 3032 3033 3027 3023 3027 3033 3036 3038 3040 3042 3045 3047 3049 3052 3052 3052 3056 3060 3063 3064 3065 3065 3065 3067 3070 3074 3077 3080 3081 3082 3083 3084 3084